GW0360 Weather Reports


Display with metric or nautical units.
time (UTC)temp
F
wind
direction
speed
MPH
gust
MPH
rain 1hr
in
rain 24hr
in
rain mn
in
humidity
%
barometer
mb
20260510161550 63 0 1.0 7.0 0.00 0.00 0.00 38 1023.1
20260510161041 63 0 0.0 7.0 0.00 0.00 0.00 39 1023.1
20260510160544 62 87 2.0 6.0 0.00 0.00 0.00 38 1022.9
20260510160056 63 71 0.0 5.0 0.00 0.00 0.00 37 1022.9
20260510155545 62 0 0.0 5.0 0.00 0.00 0.00 39 1023.0
20260510155044 62 18 0.0 5.0 0.00 0.00 0.00 39 1023.0
20260510154550 61 42 0.0 6.0 0.00 0.00 0.00 40 1023.1
20260510154043 60 0 0.0 6.0 0.00 0.00 0.00 40 1023.1
20260510153544 60 76 0.0 6.0 0.00 0.00 0.00 39 1023.1
20260510153055 60 346 0.0 5.0 0.00 0.00 0.00 42 1023.0
20260510152545 60 40 1.0 5.0 0.00 0.00 0.00 41 1023.0
20260510152044 60 42 1.0 5.0 0.00 0.00 0.00 40 1022.8
20260510151554 60 0 0.0 5.0 0.00 0.00 0.00 41 1022.9
20260510151041 59 0 1.0 7.0 0.00 0.00 0.00 42 1022.8
20260510150545 59 122 2.0 7.0 0.00 0.00 0.00 42 1022.7
20260510150055 59 103 1.0 7.0 0.00 0.00 0.00 42 1022.4
20260510145541 58 68 1.0 10.0 0.00 0.00 0.00 42 1022.4
20260510145041 58 70 1.0 10.0 0.00 0.00 0.00 43 1022.6
20260510144554 58 36 1.0 10.0 0.00 0.00 0.00 44 1022.4
20260510144046 57 0 2.0 10.0 0.00 0.00 0.00 43 1022.2
20260510143541 57 59 1.0 10.0 0.00 0.00 0.00 43 1022.4
20260510143049 57 124 0.0 7.0 0.00 0.00 0.00 46 1022.2
20260510142544 57 57 1.0 8.0 0.00 0.00 0.00 44 1022.1
20260510142041 57 11 1.0 8.0 0.00 0.00 0.00 44 1022.2
20260510141550 57 0 1.0 7.0 0.00 0.00 0.00 46 1022.2
20260510141040 57 51 0.0 3.0 0.00 0.00 0.00 46 1022.2
20260510140544 57 0 0.0 5.0 0.00 0.00 0.00 46 1022.0
20260510140054 56 0 0.0 6.0 0.00 0.00 0.00 46 1022.0
20260510135541 56 105 1.0 6.0 0.00 0.00 0.00 45 1022.0
20260510135045 56 0 1.0 5.0 0.00 0.00 0.00 46 1022.0
20260510134553 56 0 0.0 8.0 0.00 0.00 0.00 46 1022.0
20260510134043 56 36 1.0 8.0 0.00 0.00 0.00 45 1021.9
20260510133544 56 0 0.0 3.0 0.00 0.00 0.00 45 1021.8
20260510133051 56 0 1.0 6.0 0.00 0.00 0.00 45 1021.8
20260510132541 56 0 0.0 6.0 0.00 0.00 0.00 44 1021.9
20260510132042 56 34 0.0 6.0 0.00 0.00 0.00 44 1021.7
20260510131548 56 135 2.0 6.0 0.00 0.00 0.00 43 1021.6
20260510131044 56 0 0.0 5.0 0.00 0.00 0.00 44 1021.6
20260510130541 56 0 0.0 4.0 0.00 0.00 0.00 44 1021.5
20260510130054 56 59 0.0 8.0 0.00 0.00 0.00 45 1021.4
20260510125540 56 0 1.0 9.0 0.00 0.00 0.00 45 1021.2
20260510125044 56 0 1.0 9.0 0.00 0.00 0.00 43 1021.3
20260510124550 56 25 1.0 8.0 0.00 0.00 0.00 44 1021.3
20260510124045 56 47 1.0 7.0 0.00 0.00 0.00 45 1021.1
20260510123545 56 44 0.0 4.0 0.00 0.00 0.00 46 1021.0
20260510123052 56 59 0.0 8.0 0.00 0.00 0.00 45 1021.1
20260510122540 56 37 1.0 8.0 0.00 0.00 0.00 45 1021.0
20260510122043 56 0 1.0 8.0 0.00 0.00 0.00 44 1020.9
20260510121555 56 0 0.0 5.0 0.00 0.00 0.00 45 1020.9
20260510121044 56 25 0.0 3.0 0.00 0.00 0.00 45 1020.7
20260510120545 56 40 0.0 3.0 0.00 0.00 0.00 45 1020.4
20260510120056 56 0 0.0 3.0 0.00 0.00 0.00 45 1020.3
20260510115544 56 108 0.0 3.0 0.00 0.00 0.00 45 1020.3
20260510115041 56 44 0.0 4.0 0.00 0.00 0.00 45 1020.1
20260510114606 56 26 0.0 5.0 0.00 0.00 0.00 45 1019.9
20260510114044 56 38 0.0 5.0 0.00 0.00 0.00 45 1019.7
20260510113541 56 0 0.0 2.0 0.00 0.00 0.00 46 1019.6
20260510113050 55 0 0.0 3.0 0.00 0.00 0.00 46 1019.7
20260510112541 55 0 0.0 4.0 0.00 0.00 0.00 46 1019.6
20260510112042 55 0 0.0 4.0 0.00 0.00 0.00 46 1019.4
20260510111551 56 0 1.0 4.0 0.00 0.00 0.00 45 1019.3
20260510111040 56 0 0.0 3.0 0.00 0.00 0.00 45 1019.3
20260510110545 56 84 0.0 3.0 0.00 0.00 0.00 46 1019.3
20260510110049 56 0 0.0 3.0 0.00 0.00 0.00 46 1019.3
20260510105545 56 0 0.0 3.0 0.00 0.00 0.00 46 1019.2
20260510105048 56 0 0.0 5.0 0.00 0.00 0.00 46 1019.2
20260510104606 56 0 0.0 8.0 0.00 0.00 0.00 46 1019.2
20260510104044 57 355 1.0 8.0 0.00 0.00 0.00 46 1019.1
20260510103541 57 0 0.0 2.0 0.00 0.00 0.00 47 1019.2
20260510103055 57 0 0.0 5.0 0.00 0.00 0.00 47 1019.1
20260510102541 57 0 0.0 7.0 0.00 0.00 0.00 46 1018.9
20260510102042 58 10 1.0 8.0 0.00 0.00 0.00 47 1019.1
20260510101549 58 0 0.0 8.0 0.00 0.00 0.00 47 1019.0
20260510101044 58 0 0.0 3.0 0.00 0.00 0.00 49 1018.9
20260510100544 58 0 0.0 4.0 0.00 0.00 0.00 49 1018.7
20260510100058 58 0 0.0 4.0 0.00 0.00 0.00 50 1018.5
20260510095547 58 70 0.0 2.0 0.00 0.00 0.00 51 1018.3
20260510095044 58 0 0.0 3.0 0.00 0.00 0.00 53 1018.4
20260510094551 59 0 0.0 3.0 0.00 0.00 0.00 53 1018.5
20260510094045 59 82 0.0 8.0 0.00 0.00 0.00 54 1018.2
20260510093540 59 0 0.0 9.0 0.00 0.00 0.00 53 1018.2
20260510093052 59 0 1.0 9.0 0.00 0.00 0.00 53 1018.1
20260510092545 59 0 0.0 6.0 0.00 0.00 0.00 52 1018.0
20260510092042 59 0 0.0 5.0 0.00 0.00 0.00 51 1017.9
20260510091551 59 0 0.0 9.0 0.00 0.00 0.00 50 1017.8
20260510091041 60 34 0.0 9.0 0.00 0.00 0.00 50 1017.8
20260510090545 60 30 0.0 5.0 0.00 0.00 0.00 52 1017.8
20260510090050 60 23 0.0 3.0 0.00 0.00 0.00 55 1017.8
20260510085540 60 60 0.0 2.0 0.00 0.00 0.00 56 1017.9
20260510085044 60 0 0.0 3.0 0.00 0.00 0.00 57 1017.9
20260510084557 60 0 0.0 4.0 0.00 0.00 0.00 57 1017.7
20260510084041 60 0 0.0 4.0 0.00 0.00 0.00 57 1017.5
20260510083545 60 0 0.0 4.0 0.00 0.00 0.00 57 1017.5
20260510083057 60 0 0.0 5.0 0.00 0.00 0.00 57 1017.4
20260510082543 60 63 0.0 5.0 0.00 0.00 0.00 58 1017.1
20260510082043 60 0 0.0 5.0 0.00 0.00 0.00 58 1017.1
20260510081554 60 0 0.0 4.0 0.00 0.00 0.00 58 1016.9
20260510081041 60 0 0.0 5.0 0.00 0.00 0.00 58 1016.9
20260510080541 60 36 0.0 5.0 0.00 0.00 0.00 60 1016.8
20260510080052 60 0 0.0 4.0 0.00 0.00 0.00 61 1016.9
20260510075541 60 0 0.0 4.0 0.00 0.00 0.00 62 1016.9
20260510075041 60 0 0.0 4.0 0.00 0.00 0.00 62 1016.9
20260510074616 60 0 0.0 4.0 0.00 0.00 0.00 62 1016.8
20260510074045 60 0 0.0 3.0 0.00 0.00 0.00 62 1016.6
20260510073543 60 0 0.0 2.0 0.00 0.00 0.00 63 1016.2
20260510073054 60 0 0.0 0.0 0.00 0.00 0.00 63 1016.4
20260510072541 60 0 0.0 2.0 0.00 0.00 0.00 62 1016.4
20260510072044 61 0 0.0 2.0 0.00 0.00 0.00 63 1016.3
20260510071558 61 0 0.0 2.0 0.00 0.00 0.00 62 1016.3
20260510071045 60 0 0.0 0.0 0.00 0.00 0.00 63 1016.2
20260510070540 60 0 0.0 1.0 0.00 0.00 0.00 63 1016.2
20260510070053 60 0 0.0 1.0 0.00 0.00 0.00 64 1016.2
20260510065544 60 0 0.0 0.0 0.00 0.00 0.00 64 1016.3
20260510065041 60 0 0.0 0.0 0.00 0.00 0.00 63 1016.2
20260510064606 61 0 0.0 0.0 0.00 0.00 0.00 62 1016.3
20260510064043 61 0 0.0 0.0 0.00 0.00 0.00 61 1016.3
20260510063544 61 0 0.0 0.0 0.00 0.00 0.00 61 1016.1
20260510063100 61 0 0.0 1.0 0.00 0.00 0.00 61 1015.9
20260510062542 61 0 0.0 1.0 0.00 0.00 0.00 61 1015.7
20260510062042 61 0 0.0 0.0 0.00 0.00 0.00 61 1015.6
20260510061548 61 0 0.0 0.0 0.00 0.00 0.00 61 1015.8
20260510061041 61 0 0.0 0.0 0.00 0.00 0.00 60 1015.7
20260510060544 61 0 0.0 0.0 0.00 0.00 0.00 61 1015.5
20260510060057 61 0 0.0 0.0 0.00 0.00 0.00 60 1015.4
20260510055543 62 0 0.0 0.0 0.00 0.00 0.00 59 1015.4
20260510055045 62 0 0.0 0.0 0.00 0.00 0.00 59 1015.6
20260510054552 63 0 0.0 0.0 0.00 0.00 0.00 59 1015.7
20260510054041 63 0 0.0 1.0 0.00 0.00 0.00 59 1015.6
20260510053543 63 0 0.0 1.0 0.00 0.00 0.00 57 1015.5
20260510053051 63 0 0.0 0.0 0.00 0.00 0.00 58 1015.4
20260510052543 63 0 0.0 0.0 0.00 0.00 0.00 57 1015.3
20260510052041 64 0 0.0 0.0 0.00 0.00 0.00 57 1015.3
20260510051600 64 0 0.0 0.0 0.00 0.00 0.00 57 1015.4
20260510051042 64 0 0.0 0.0 0.00 0.00 0.00 57 1015.2
20260510050541 64 0 0.0 0.0 0.00 0.00 0.00 55 1015.1
20260510050052 65 0 0.0 1.0 0.00 0.00 0.00 55 1015.0
20260510045541 65 0 0.0 1.0 0.00 0.00 0.00 53 1015.0
20260510045040 65 0 0.0 1.0 0.00 0.00 0.00 53 1015.0
20260510044552 65 0 0.0 1.0 0.00 0.00 0.00 53 1014.8
20260510044043 65 0 0.0 2.0 0.00 0.00 0.00 53 1014.7
20260510043541 66 0 0.0 2.0 0.00 0.00 0.00 54 1014.6
20260510043059 66 0 0.0 2.0 0.00 0.00 0.00 53 1014.5
20260510042543 66 0 0.0 2.0 0.00 0.00 0.00 54 1014.4
20260510042043 66 0 0.0 0.0 0.00 0.00 0.00 52 1014.4
20260510041609 66 0 0.0 0.0 0.00 0.00 0.00 53 1014.3
20260510041044 66 0 0.0 1.0 0.00 0.00 0.00 53 1014.4
20260510040544 66 0 0.0 1.0 0.00 0.00 0.00 54 1014.1
20260510040054 67 0 0.0 1.0 0.00 0.00 0.00 53 1014.1
20260510035543 67 0 0.0 2.0 0.00 0.00 0.00 53 1014.1
20260510035043 67 0 0.0 2.0 0.00 0.00 0.00 51 1014.0
20260510034552 67 0 0.0 1.0 0.00 0.00 0.00 52 1013.9
20260510034046 68 0 0.0 2.0 0.00 0.00 0.00 51 1013.9
20260510033545 68 0 0.0 2.0 0.00 0.00 0.00 52 1013.6
20260510033050 68 0 0.0 2.0 0.00 0.00 0.00 50 1013.3
20260510032541 68 0 0.0 0.0 0.00 0.00 0.00 50 1013.2
20260510032043 68 0 0.0 0.0 0.00 0.00 0.00 50 1013.1
20260510031556 68 0 0.0 0.0 0.00 0.00 0.00 50 1012.9
20260510031040 68 0 0.0 0.0 0.00 0.00 0.00 50 1012.8
20260510030543 68 0 0.0 1.0 0.00 0.00 0.00 51 1012.8
20260510030053 68 0 0.0 1.0 0.00 0.00 0.00 49 1012.8
20260510025540 68 0 0.0 1.0 0.00 0.00 0.00 49 1012.8
20260510025045 69 0 0.0 0.0 0.00 0.00 0.00 50 1012.4
20260510024558 69 0 0.0 2.0 0.00 0.00 0.00 48 1012.3
20260510024048 70 0 0.0 2.0 0.00 0.00 0.00 48 1012.2
20260510023541 70 59 0.0 2.0 0.00 0.00 0.00 47 1012.1
20260510023050 70 0 0.0 5.0 0.00 0.00 0.00 47 1011.9
20260510022546 70 0 0.0 5.0 0.00 0.00 0.00 47 1011.9
20260510022041 70 38 0.0 4.0 0.00 0.00 0.00 48 1011.9
20260510021550 70 0 0.0 4.0 0.00 0.00 0.00 46 1011.9
20260510021041 70 0 0.0 4.0 0.00 0.00 0.00 46 1011.6
20260510020541 71 0 0.0 3.0 0.00 0.00 0.00 46 1011.7
20260510020054 71 44 0.0 3.0 0.00 0.00 0.00 45 1011.6
20260510015541 71 0 0.0 5.0 0.00 0.00 0.00 46 1011.5
20260510015040 71 0 0.0 5.0 0.00 0.00 0.00 45 1011.5
20260510014551 71 0 0.0 1.0 0.00 0.00 0.00 45 1011.5
20260510014041 71 0 0.0 4.0 0.00 0.00 0.00 45 1011.4
20260510013541 72 0 0.0 4.0 0.00 0.00 0.00 44 1011.3
20260510013102 72 0 0.0 4.0 0.00 0.00 0.00 44 1011.2
20260510012543 72 29 0.0 4.0 0.00 0.00 0.00 43 1010.9
20260510012041 72 0 0.0 4.0 0.00 0.00 0.00 43 1010.6
20260510011550 73 0 0.0 4.0 0.00 0.00 0.00 44 1010.7
20260510011042 73 0 0.0 4.0 0.00 0.00 0.00 43 1010.7
20260510010541 73 0 0.0 1.0 0.00 0.00 0.00 44 1010.7
20260510005541 73 0 0.0 2.0 0.00 0.00 0.00 44 1010.7
20260510005040 74 0 0.0 2.0 0.00 0.00 0.00 43 1010.6
20260510004558 74 340 0.0 5.0 0.00 0.00 0.00 42 1010.5
20260510004041 74 0 0.0 5.0 0.00 0.00 0.00 43 1010.3
20260510003544 74 0 0.0 1.0 0.00 0.00 0.00 43 1010.3
20260510003055 74 0 0.0 2.0 0.00 0.00 0.00 42 1010.1
20260510002540 75 0 0.0 3.0 0.00 0.00 0.00 41 1010.2
20260510002041 75 0 0.0 3.0 0.00 0.00 0.00 41 1010.1
20260510001552 75 0 0.0 5.0 0.00 0.00 0.00 41 1009.8
20260510001044 76 0 0.0 5.0 0.00 0.00 0.00 42 1009.8
20260510000545 76 0 0.0 6.0 0.00 0.00 0.00 40 1009.7
20260510000108 76 42 0.0 6.0 0.00 0.00 0.00 40 1009.8
20260509235541 76 35 0.0 6.0 0.00 0.00 0.00 40 1009.8
20260509235041 76 342 1.0 6.0 0.00 0.00 0.00 40 1009.8
20260509234602 77 38 1.0 5.0 0.00 0.00 0.00 39 1009.7
20260509234047 77 22 0.0 5.0 0.00 0.00 0.00 38 1009.7
20260509233541 78 0 1.0 8.0 0.00 0.00 0.00 40 1009.8
20260509233049 77 355 0.0 8.0 0.00 0.00 0.00 41 1009.5
20260509232543 78 27 0.0 9.0 0.00 0.00 0.00 38 1009.6
20260509232044 78 0 0.0 9.0 0.00 0.00 0.00 38 1009.6
20260509231552 78 41 1.0 6.0 0.00 0.00 0.00 38 1009.4
20260509231041 79 346 1.0 4.0 0.00 0.00 0.00 37 1009.3
20260509230544 80 0 0.0 7.0 0.00 0.00 0.00 39 1009.2
20260509225544 80 275 1.0 8.0 0.00 0.00 0.00 37 1009.1
20260509225043 79 327 0.0 4.0 0.00 0.00 0.00 38 1009.1
20260509224556 79 286 0.0 6.0 0.00 0.00 0.00 40 1009.0
20260509224043 79 0 0.0 8.0 0.00 0.00 0.00 37 1009.1
20260509223541 79 315 0.0 8.0 0.00 0.00 0.00 37 1009.1
20260509223054 79 0 1.0 8.0 0.00 0.00 0.00 37 1009.1
20260509222541 79 336 1.0 11.0 0.00 0.00 0.00 37 1009.1
20260509222041 79 278 2.0 11.0 0.00 0.00 0.00 36 1009.0
20260509221610 79 303 1.0 9.0 0.00 0.00 0.00 35 1008.9
20260509221040 79 282 1.0 8.0 0.00 0.00 0.00 36 1008.9
20260509220544 80 0 2.0 7.0 0.00 0.00 0.00 36 1008.9
20260509215541 80 0 0.0 6.0 0.00 0.01 0.00 38 1008.7
20260509215042 81 5 1.0 6.0 0.00 0.01 0.00 36 1008.7
20260509214551 81 336 1.0 8.0 0.00 0.01 0.00 35 1008.7
20260509214041 81 304 1.0 8.0 0.00 0.01 0.00 35 1008.7
20260509213541 82 308 1.0 10.0 0.00 0.01 0.00 33 1008.7
20260509213053 82 0 2.0 10.0 0.00 0.01 0.00 32 1008.7
20260509212544 82 256 2.0 11.0 0.00 0.01 0.00 32 1008.7
20260509212043 83 331 1.0 11.0 0.00 0.01 0.00 34 1008.5
20260509211554 84 282 3.0 11.0 0.00 0.01 0.00 32 1008.5
20260509211043 83 197 3.0 11.0 0.00 0.01 0.00 33 1008.5
20260509210541 83 284 2.0 13.0 0.00 0.01 0.00 32 1008.6
20260509210058 83 244 2.0 13.0 0.00 0.01 0.00 32 1008.7
20260509205541 83 360 2.0 13.0 0.00 0.01 0.00 32 1008.7
20260509205041 83 297 2.0 10.0 0.00 0.01 0.00 30 1008.7
20260509204549 84 236 2.0 13.0 0.00 0.01 0.00 30 1008.7
20260509204041 84 34 3.0 13.0 0.00 0.01 0.00 30 1008.6
20260509203541 85 0 3.0 10.0 0.00 0.01 0.00 30 1008.7
20260509203055 85 248 4.0 10.0 0.00 0.01 0.00 30 1008.7
20260509202541 85 286 3.0 11.0 0.00 0.01 0.00 31 1008.6
20260509202043 85 224 4.0 11.0 0.00 0.01 0.00 31 1008.6
20260509201554 86 267 3.0 9.0 0.00 0.01 0.00 31 1008.7
20260509201040 86 258 3.0 9.0 0.00 0.01 0.00 30 1008.7
20260509200541 86 281 3.0 9.0 0.00 0.01 0.00 31 1008.8
20260509200059 86 0 2.0 9.0 0.00 0.01 0.00 34 1008.8
20260509195540 86 315 3.0 11.0 0.00 0.01 0.00 31 1008.7
20260509195044 85 336 4.0 11.0 0.00 0.01 0.00 32 1008.9
20260509194552 84 336 3.0 13.0 0.00 0.01 0.00 31 1008.8
20260509194041 84 271 3.0 13.0 0.00 0.01 0.00 31 1008.9
20260509193544 83 213 3.0 14.0 0.00 0.01 0.00 30 1008.9
20260509193059 84 32 3.0 14.0 0.00 0.01 0.00 30 1009.0
20260509192541 85 283 3.0 19.0 0.00 0.01 0.00 29 1008.8
20260509192050 86 227 4.0 19.0 0.00 0.01 0.00 29 1008.9
20260509191610 85 229 4.0 11.0 0.00 0.01 0.00 32 1009.0
20260509191040 85 295 2.0 9.0 0.00 0.01 0.00 33 1009.1
20260509190543 83 258 1.0 10.0 0.00 0.01 0.00 34 1009.1
20260509190105 83 308 2.0 11.0 0.00 0.01 0.00 33 1009.0
20260509185544 83 5 3.0 11.0 0.00 0.01 0.00 32 1009.1
20260509185041 83 174 3.0 9.0 0.00 0.01 0.00 33 1009.1
20260509184547 82 321 1.0 9.0 0.00 0.01 0.00 34 1009.1
20260509184041 82 61 2.0 12.0 0.00 0.01 0.00 32 1009.3
20260509183541 83 236 3.0 13.0 0.00 0.01 0.00 33 1009.2
20260509183054 83 23 5.0 16.0 0.00 0.01 0.00 32 1009.2
20260509182544 84 185 3.0 16.0 0.00 0.01 0.00 33 1009.3
20260509182041 84 215 6.0 16.0 0.00 0.01 0.00 30 1009.5
20260509181555 84 215 4.0 16.0 0.00 0.01 0.00 32 1009.4
20260509181044 84 24 5.0 16.0 0.00 0.01 0.00 33 1009.5
20260509180542 84 264 4.0 13.0 0.00 0.01 0.00 35 1009.5
20260509180054 83 5 5.0 13.0 0.00 0.01 0.00 32 1009.6
20260509175541 83 32 3.0 13.0 0.00 0.01 0.00 34 1009.5
20260509175042 83 327 4.0 13.0 0.00 0.01 0.00 34 1009.5
20260509174548 83 306 3.0 14.0 0.00 0.01 0.00 34 1009.8
20260509174040 83 253 6.0 14.0 0.00 0.01 0.00 35 1009.8
20260509173541 83 281 1.0 11.0 0.00 0.01 0.00 38 1009.9
20260509173058 82 258 3.0 11.0 0.00 0.01 0.00 34 1009.8
20260509172544 82 194 4.0 11.0 0.00 0.01 0.00 36 1009.9
20260509172041 81 0 3.0 12.0 0.00 0.01 0.00 38 1010.0
20260509171604 81 244 4.0 12.0 0.00 0.01 0.00 36 1010.0
20260509171041 81 210 2.0 16.0 0.00 0.01 0.00 37 1010.1
20260509170541 81 331 1.0 16.0 0.00 0.01 0.00 38 1010.1
20260509170047 80 0 2.0 10.0 0.00 0.01 0.00 39 1010.2
20260509165541 80 306 2.0 10.0 0.00 0.01 0.00 38 1010.2
20260509165041 80 328 3.0 10.0 0.00 0.01 0.00 39 1010.2
20260509164554 80 192 2.0 9.0 0.00 0.01 0.00 41 1010.2
20260509164047 79 321 3.0 9.0 0.00 0.01 0.00 41 1010.2
20260509163544 78 322 2.0 9.0 0.00 0.01 0.00 41 1010.2
20260509163056 78 0 2.0 9.0 0.00 0.01 0.00 41 1010.0
20260509162546 78 331 1.0 8.0 0.00 0.01 0.00 42 1010.1
20260509162043 78 232 1.0 8.0 0.00 0.01 0.00 41 1009.9